Погода Тас-Тумус

Погода Тас-Тумус : погода сейчас, прогноз погоды и архив. Всё, что Вы хотите узнать о погоде Тас-Тумус!

Поиск расширенной информации на нашем сайте:

Другие новости

Новости СМИ2

Главная страница сайта

Новости сайта

03.07.2017

Напоминаем, что на нашем специализированном сайте Метеоцентр.Азия вы можете получить высокодетализированные автоматические прогнозы погоды по пунктам России, СНГ и мира в авиационном формате (включающие направление и скорость ветра, видимость, явления погоды, количество и форму облачности, нижнюю и верхнюю границу облачности).


Погода Тас-Тумус - сегодня

Время (UTC), дата Ветер
(°,м/с) 
Видим.   Явления Облачность Т
(°С)
Тd
(°С)
f(%) Тe
(°С)
Pmin
(гПа)
dP
(гПа)
Po
(мм)
O2
(г/м3)
Тmin Tmax R s Состояние
почвы
06 17.02.18 тихо ()   20000 м    9/0 средняя, верхняя 
[Ac trans|Cs]
-26.4 -28.2 85 -26  1020.9  0.4  757  339           
09 17.02.18 100 (В) 20000 м    9/0 средняя, верхняя 
[Ac trans|Cs]
-28.5 -30.2 85 -29  1021.3  0.3  757  342           
15 17.02.18 110 (В) 20000 м    6/0 верхняя 
[Ci fib]
-33.8 -35.6 84 -35  1022.4  0.3  758  350           
18 17.02.18 тихо ()   20000 м    4/0 верхняя 
[Ci fib]
-34.3 -35.9 85 -34  1022.6  0.1  758  351           
21 17.02.18 тихо ()   20000 м    3/0 верхняя 
[Ci fib]
-36.8 -38.5 84 -37  1023.2  0.5  758  355           
03 18.02.18 тихо ()   20000 м    9/0 средняя 
[Ac trans]
-30.4 -32.1 85 -30  1023.1  758  346           
06 18.02.18 тихо ()   20000 м    9/0 средняя 
[Ac trans]
-28.1 -29.8 85 -28  1022.5  -0.5  758  342           
09 18.02.18 тихо ()   20000 м    6/0 средняя 
[Ac trans]
-30.3 -32.1 84 -30  1022.6  758  345           
15 18.02.18 тихо ()   20000 м    4/0 верхняя 
[Ci fib]
-34 -35.6 86 -34  1022.2  -0.8  757  351           
18 18.02.18 тихо ()   20000 м    3/0 верхняя 
[Ci fib]
-36.6 -32.2 100 -37  1021.8  -0.5  757  354           
21 18.02.18 тихо ()   20000 м    3/0 верхняя 
[Ci fib]
-38 -39.7 84 -38  1021.4  -0.5  757  356           
03 19.02.18 тихо ()   20000 м    3/0 верхняя 
[Ci fib]
-34.6 -36.8 80 -35  1020.4  -0.3  756  351           
06 19.02.18 тихо ()   20000 м    ясно 
-31.1 -33.4 80 -31  1020.1  -0.1  756  346           
09 19.02.18 тихо ()   20000 м    ясно 
-33.6 -35.9 80 -34  1020.6  0.4  756  349           
12 19.02.18 тихо ()   20000 м    ясно 
-37.1 -39.5 78 -37  1020.8  756  355    -30.6       
15 19.02.18 тихо ()   20000 м    ясно 
-37.7 -39.9 80 -38  1019.4  -1.3  755  355           
18 19.02.18 тихо ()   20000 м    1/0 верхняя 
[Ci fib]
-41 -43.2 79 -41  1029.1  -0.6  755  360           
21 19.02.18 тихо ()   20000 м    3/0 верхняя 
[Ci fib]
-41.4 -43.8 78 -41  1018.8  -0.3  755  361           
03 20.02.18 тихо ()   20000 м    3/0 верхняя 
[Ci fib]
-37.5 -39.9 78 -38  1017.8  754  354           
06 20.02.18 тихо ()   20000 м    6/0 верхняя 
[Cs]
-35.1 -37.4 79 -35  1017.7  754  351           
09 20.02.18 тихо ()   20000 м    4/0 верхняя 
[Ci fib]
-35.4 -37.7 79 -35  1018.3  0.6  755  351           
15 20.02.18 тихо ()   20000 м    4/0 верхняя 
[Ci fib]
-37.1 -39.5 78 -37  1018  -0.4  754  354           
18 20.02.18 тихо ()   20000 м    8/0 верхняя 
[Ci fib]
-35.6 -37.7 81 -36  1017.7  -0.2  754  351           
21 20.02.18 тихо ()   20000 м    8/0 верхняя 
[Ci fib]
-35.9 -38.1 80 -36  1017.7  754  352           
03 21.02.18 110 (В) 20000 м    6/0 средняя, верхняя 
[Ac trans|Ci fib]
-31.9 -34.4 79 -33  1017.9  0.2  754  346           
Время (UTC), дата Ветер
(°,м/с) 
Видим.   Явления Облачность Т
(°С)
Тd
(°С)
f(%) Тe
(°С)
Pmin
(гПа)
dP
(гПа)
Po
(мм)
O2
(г/м3)
Тmin Tmax R s Состояние
почвы

Для получения пояснительной информации подведите курсор к названию столбца.

ПОГОДА Тас-Тумус - архив

Всё, что Вы хотите узнать о погоде Тас-Тумус - удобно и подробно!

Выберите нужную дату (начиная с 1 января 2015* года) и нажмите кнопку "Найти".
Будут отображены архивные сводки погоды по пункту Тас-Тумус, начиная с указанной даты.


Отображать данные в формате CSV (для использования в таблицах Excel)


Внимание! Наш архив погоды предназначен исключительно для личного некоммерческого использования в познавательных целях. Если Вам необходимы официальные справки о состоянии погоды (для производственных, юридических, коммерческих и т.п. целей), обращайтесь в органы Росгидромета.

*Примечание: данная дата относится к архиву по метеостанциям СССР (Россия, СНГ, Балтия).
Архив по метеостанциям Зарубежной Европы и Азии (кроме Китая) хранится 10 дней, по другим регионам земного шара (Китай, Африка, Америка, Австралия, Океания) - 1 день.

Тас-Тумус - район местоположения метеостанции


Название, широта, долгота, высота метеостанции:
Тас-Тумус 64.2°ш. 126.6°д. 76 м над ур. моря [Российская Федерация]

Дополнительная информация

В oтличие oт бoльшинства пoгoдных сайтoв мы публикуем пoдрoбную метеoинфoрмацию в детальнoм прoфессиoнальнoм фoрмате.

Характеристики температуры и влажнoсти вoздуха измеряются на высoте 2 м в тени вдали oт зданий и деревьев.
Скoрoсть ветра измеряется на высoте 10 м (на урoвне рoста челoвека скoрoсть ветра ниже в 1.5-2 раза). Если метеoстанция нахoдится в гoрoде или в лесу, тo скoрoсть ветра занижена на 2-4 м/с пo сравнению с oткрытым местoм. Скoрoсть ветра над акватoриями крупных рек и oзёр, а также на вершинах хoлмoв на 2-5 м/с выше, чем в oбычных услoвиях.
Атмoсфернoе давление в разных тoчках местнoсти мoжет значительнo oтличаться oт давления на метеoстанции, в зависимoсти oт услoвий рельефа (при пoдъёме на 10 м давление пoнижается примернo на 1 мм рт.ст.).